Stations météo

Publicité
Tholey, Allemagne (10706): Température de l'air & dewpoint: 03.04.2020 11:00:00 - 09.04.2020 11:00:00 (CEST)Tholey, Allemagne (10706): Température de l'air 5cm & Température de l'air -5cm: 03.04.2020 11:00:00 - 09.04.2020 11:00:00 (CEST)Tholey, Allemagne (10706): Température de l'air -20cm & Température de l'air -100cm: 03.04.2020 11:00:00 - 09.04.2020 11:00:00 (CEST)Tholey, Allemagne (10706): Vitesse du vent & gusts: 03.04.2020 11:00:00 - 09.04.2020 11:00:00 (CEST)Tholey, Allemagne (10706): Direction du vent: 03.04.2020 11:00:00 - 09.04.2020 11:00:00 (CEST)Tholey, Allemagne (10706): reduced air pressure: 03.04.2020 11:00:00 - 09.04.2020 11:00:00 (CEST)Tholey, Allemagne (10706): visibility: 03.04.2020 11:00:00 - 09.04.2020 11:00:00 (CEST)Tholey, Allemagne (10706): Ensoleillement: 03.04.2020 11:00:00 - 09.04.2020 11:00:00 (CEST)Tholey, Allemagne (10706): Quantités de précipitations: 03.04.2020 11:00:00 - 09.04.2020 11:00:00 (CEST)
Date & Time tt [°C] td [°C] tt 5cm [°C] tt -5cm [°C] tt -20cm [°C] tt -100cm [°C] ff [km/h] ff [knt] fx [km/h] fx [knt] dd ppp [hPa] vv [km] sd [min] rr [mm]
09.04.2020 11:00:00 15,1 5,4 16,5 15,0 12,6 8,5 4 2 7 4 WSW 1024,3 41 2 0,0
09.04.2020 10:00:00 14,6 4,3 16,1 13,2 12,7 8,4 2 1 7 4 SSW 1023,8 31 1 0,0
09.04.2020 09:00:00 13,4 2,6 13,0 11,9 12,9 8,4 4 2 7 4 W 1023,7 40 11 0,0
09.04.2020 08:00:00 13,5 1,8 9,9 10,9 13,1 8,4 4 2 9 5 ENE 1023,2 41 0 0,0
09.04.2020 07:00:00 13,1 2,3 8,4 10,8 13,3 8,4 8 4 11 6 NE 1022,9 44 0 0,0
09.04.2020 06:00:00 13,1 2,2 8,0 11,2 13,6 8,4 3 2 6 3 E 1022,9 42 0 0,0
09.04.2020 05:00:00 14,0 2,0 9,9 11,8 13,8 8,4 3 2 10 5 ENE 1022,8 43 0 0,0
09.04.2020 04:00:00 13,3 2,0 10,1 11,9 14,2 8,3 6 3 7 4 E 1022,8 46 0 0,0
09.04.2020 03:00:00 13,8 1,7 8,2 12,0 14,5 8,3 2 1 7 4 ENE 1022,9 45 0 0,0
09.04.2020 02:00:00 16,5 1,3 8,8 12,5 14,8 8,3 6 3 9 5 NNE 1022,8 41 0 0,0
09.04.2020 01:00:00 16,1 1,4 9,0 13,2 15,2 8,3 6 3 7 4 ENE 1023,1 45 0 0,0
09.04.2020 00:00:00 17,0 1,3 9,0 14,1 15,5 8,3 4 2 6 3 NNE 1023,0 44 0 0,0
08.04.2020 23:00:00 17,5 1,5 9,8 15,3 15,8 8,3 4 2 8 4 E 1023,0 46 0 0,0
08.04.2020 22:00:00 17,7 1,4 12,3 16,6 16,1 8,2 4 2 12 6 NW 1022,9 54 0 0,0
08.04.2020 21:00:00 18,3 1,0 11,4 18,1 16,2 8,2 4 2 5 3 E 1022,4 50 0 0,0
08.04.2020 20:00:00 19,4 0,5 14,2 20,4 16,1 8,2 2 1 7 4 ESE 1022,0 54 14 0,0
08.04.2020 19:00:00 20,3 0,7 19,7 22,9 15,8 8,2 6 3 12 7 ENE 1021,8 52 60 0,0
08.04.2020 18:00:00 20,7 -0,1 22,2 24,7 15,3 8,2 6 3 16 9 E 1021,9 43 60 0,0
08.04.2020 17:00:00 21,1 1,2 23,7 25,9 14,7 8,2 3 2 14 8 ESE 1022,2 60 60 0,0
08.04.2020 16:00:00 20,7 2,2 24,8 26,0 14,0 8,1 11 6 21 12 E 1022,8 53 60 0,0
08.04.2020 15:00:00 21,0 3,0 24,3 25,6 13,4 8,1 12 6 26 14 SE 1023,0 37 60 0,0
08.04.2020 14:00:00 20,0 1,5 24,9 24,4 12,7 8,1 10 5 19 10 E 1023,8 61 60 0,0
08.04.2020 13:00:00 18,9 4,2 24,9 22,2 12,2 8,1 8 5 16 9 E 1024,5 53 60 0,0
08.04.2020 12:00:00 18,1 6,0 21,8 19,5 11,8 8,1 11 6 19 10 ESE 1025,3 45 60 0,0
08.04.2020 11:00:00 16,3 7,1 19,5 16,5 11,7 8,1 13 7 19 10 ESE 1025,7 35 60 0,0
08.04.2020 10:00:00 15,4 7,1 17,1 13,6 11,7 8,1 11 6 20 11 E 1025,9 37 60 0,0
08.04.2020 09:00:00 13,2 6,3 13,8 11,2 11,8 8,0 15 8 25 14 ENE 1026,1 25 60 0,0
08.04.2020 08:00:00 11,7 6,1 10,6 9,9 12,1 8,0 16 9 27 14 NE 1026,4 32 30 0,0
08.04.2020 07:00:00 11,1 5,8 8,7 9,9 12,3 8,0 19 10 25 14 NE 1026,4 31 0 0,0
08.04.2020 06:00:00 11,3 5,9 8,8 10,3 12,6 8,0 18 10 25 14 NE 1026,4 37 0 0,0
08.04.2020 05:00:00 11,8 5,8 9,3 10,8 12,8 8,0 18 10 29 16 NE 1026,7 38 0 0,0
08.04.2020 04:00:00 12,5 5,8 10,1 11,3 13,1 8,0 21 11 29 16 NNE 1026,8 47 0 0,0
08.04.2020 03:00:00 13,3 5,8 10,5 11,7 13,3 8,0 18 10 26 14 NNE 1027,0 48 0 0,0
08.04.2020 02:00:00 13,9 5,5 11,1 12,3 13,6 7,9 19 11 24 13 NE 1027,3 52 0 0,0
08.04.2020 01:00:00 14,4 5,5 11,9 13,0 13,9 7,9 20 11 27 15 NE 1027,4 56 0 0,0
08.04.2020 00:00:00 15,3 5,0 12,8 13,6 14,1 7,9 21 11 27 15 NE 1027,2 64 0 0,0
07.04.2020 23:00:00 16,3 4,0 13,8 14,4 14,4 7,9 19 10 30 16 ENE 1027,1 59 0 0,0
07.04.2020 22:00:00 16,9 2,7 14,2 15,3 14,6 7,9 17 9 27 14 ENE 1027,0 56 0 0,0
07.04.2020 21:00:00 17,2 2,6 14,4 16,6 14,7 7,9 16 9 27 15 ENE 1026,8 58 2 0,0
07.04.2020 20:00:00 18,6 2,4 16,5 18,5 14,6 7,9 16 9 32 17 E 1026,2 66 60 0,0
07.04.2020 19:00:00 19,9 1,5 19,2 20,5 14,4 7,8 21 11 35 19 E 1026,1 56 60 0,0
07.04.2020 18:00:00 20,3 2,3 21,1 22,3 14,0 7,8 21 11 33 18 ENE 1026,1 57 60 0,0
07.04.2020 17:00:00 20,6 3,0 22,7 23,5 13,4 7,8 19 10 34 18 E 1026,3 68 50 0,0
07.04.2020 16:00:00 20,5 3,3 22,5 24,2 12,8 7,8 15 8 31 17 E 1027,0 47 54 0,0
07.04.2020 15:00:00 20,6 2,9 26,0 24,3 12,1 7,8 7 4 27 15 E 1027,5 52 60 0,0
07.04.2020 14:00:00 19,7 3,9 24,3 22,9 11,4 7,8 12 7 23 12 E 1028,2 62 60 0,0
07.04.2020 13:00:00 18,8 4,9 22,5 20,8 10,9 7,8 16 8 26 14 E 1028,8 38 60 0,0
07.04.2020 12:00:00 18,4 6,4 21,9 18,3 10,5 7,8 16 9 26 14 E 1029,1 45 60 0,0
07.04.2020 11:00:00 16,1 6,7 19,0 15,4 10,3 7,7 17 9 27 15 ENE 1029,4 32 60 0,0
07.04.2020 10:00:00 14,2 6,4 16,5 12,8 10,2 7,7 19 10 28 15 NE 1029,5 41 60 0,0
07.04.2020 09:00:00 13,1 5,6 14,5 10,5 10,3 7,7 17 9 25 13 ENE 1029,5 39 60 0,0
07.04.2020 08:00:00 11,1 5,3 10,4 8,5 10,5 7,7 19 11 27 14 NE 1029,5 29 33 0,0
07.04.2020 07:00:00 10,2 4,7 7,8 8,3 10,7 7,7 18 10 23 12 NE 1029,3 32 0 0,0
07.04.2020 06:00:00 10,6 4,2 8,2 8,5 10,9 7,7 16 8 27 15 ENE 1028,7 41 0 0,0
07.04.2020 05:00:00 10,5 2,3 8,2 8,6 11,2 7,7 14 8 20 11 ENE 1028,4 50 0 0,0
07.04.2020 04:00:00 11,8 2,2 5,2 8,8 11,5 7,7 6 3 13 7 ENE 1027,7 63 0 0,0
07.04.2020 03:00:00 12,4 1,0 7,8 9,1 11,8 7,6 10 5 11 6 E 1027,4 56 0 0,0
07.04.2020 02:00:00 12,3 -0,1 6,7 9,7 12,1 7,6 5 3 9 5 E 1027,3 66 0 0,0
07.04.2020 01:00:00 14,4 0,0 6,4 10,3 12,4 7,6 4 2 6 4 ENE 1026,6 67 0 0,0
07.04.2020 00:00:00 13,7 -0,3 6,5 11,1 12,7 7,6 5 3 6 4 ENE 1025,9 59 0 0,0
06.04.2020 23:00:00 15,1 -0,2 7,5 12,1 13,0 7,6 5 3 12 7 NW 1025,5 61 0 0,0
06.04.2020 22:00:00 16,7 -1,1 9,9 13,3 13,2 7,6 9 5 14 8 WNW 1024,8 69 0 0,0
06.04.2020 21:00:00 16,3 -0,5 9,0 14,9 13,3 7,6 8 4 16 9 W 1024,1 54 2 0,0
06.04.2020 20:00:00 18,0 -0,5 14,5 17,0 13,2 7,6 12 6 28 15 W 1022,9 56 60 0,0
06.04.2020 19:00:00 18,9 -0,2 17,7 19,0 12,9 7,6 19 11 33 18 WSW 1022,2 75 60 0,0
06.04.2020 18:00:00 19,2 -1,1 19,8 20,6 12,5 7,5 23 13 41 22 SW 1022,1 42 60 0,0
06.04.2020 17:00:00 19,4 -1,6 21,0 21,6 11,9 7,5 23 12 43 23 SW 1022,1 42 60 0,0
06.04.2020 16:00:00 19,4 -1,5 21,6 22,1 11,3 7,5 29 15 42 23 WSW 1021,8 46 60 0,0
06.04.2020 15:00:00 19,3 0,9 22,6 21,6 10,7 7,5 21 12 37 20 SSW 1021,8 63 60 0,0
06.04.2020 14:00:00 18,2 2,2 21,7 20,5 10,1 7,5 22 12 34 18 SSW 1021,8 44 60 0,0
06.04.2020 13:00:00 17,2 0,4 20,2 18,5 9,6 7,5 27 15 41 22 SSW 1021,9 42 60 0,0
06.04.2020 12:00:00 15,6 2,7 18,7 16,4 9,2 7,5 19 10 29 16 WSW 1022,2 28 60 0,0
06.04.2020 11:00:00 13,5 2,0 15,8 13,6 9,0 7,5 13 7 23 13 WSW 1022,6 35 60 0,0
06.04.2020 10:00:00 11,7 1,7 13,5 10,6 9,0 7,5 11 6 19 10 SSW 1022,4 34 60 0,0
06.04.2020 09:00:00 10,0 0,4 10,9 7,9 9,2 7,5 9 5 13 7 SSW 1022,4 44 60 0,0
06.04.2020 08:00:00 9,8 -0,4 7,3 6,2 9,5 7,4 3 1 7 4 ESE 1021,8 60 38 0,0
06.04.2020 07:00:00 9,6 -0,4 2,7 6,3 9,7 7,4 3 2 7 4 SE 1020,9 44 0 0,0
06.04.2020 06:00:00 10,4 -0,9 3,1 6,8 10,0 7,4 6 3 9 5 ENE 1020,2 47 0 0,0
06.04.2020 05:00:00 11,0 -1,0 3,5 7,4 10,3 7,4 6 4 13 7 ENE 1019,9 45 0 0,0
06.04.2020 04:00:00 11,7 -1,1 4,5 8,0 10,5 7,4 6 4 15 8 NE 1019,5 48 0 0,0
06.04.2020 03:00:00 11,4 -1,2 6,2 8,7 10,8 7,4 11 6 18 10 ENE 1019,7 49 0 0,0
06.04.2020 02:00:00 11,2 -1,1 7,5 9,3 11,1 7,4 13 7 20 11 NE 1019,4 54 0 0,0
06.04.2020 01:00:00 12,4 -1,0 9,4 9,9 11,3 7,4 16 9 23 12 ENE 1019,3 51 0 0,0
06.04.2020 00:00:00 12,7 -0,6 9,6 10,5 11,6 7,4 16 9 23 12 ENE 1019,1 47 0 0,0
05.04.2020 23:00:00 13,0 -0,2 9,8 11,3 11,9 7,4 16 9 22 12 NE 1019,1 52 0 0,0
05.04.2020 22:00:00 13,5 -0,3 10,2 12,2 12,1 7,4 15 8 20 11 ENE 1019,2 51 0 0,0
05.04.2020 21:00:00 14,1 -1,1 10,4 13,7 12,1 7,4 11 6 21 11 ENE 1018,9 58 2 0,0
05.04.2020 20:00:00 15,6 -1,7 12,8 15,8 12,0 7,4 16 9 29 16 E 1018,6 55 60 0,0
05.04.2020 19:00:00 16,8 -1,9 16,0 18,0 11,7 7,4 22 12 30 16 ESE 1018,5 73 60 0,0
05.04.2020 18:00:00 17,4 -1,7 18,2 19,9 11,2 7,4 21 12 29 16 ESE 1018,5 50 60 0,0
05.04.2020 17:00:00 17,5 -1,7 19,9 21,2 10,6 7,4 18 10 29 16 SE 1019,0 58 60 0,0
05.04.2020 16:00:00 17,4 -0,5 21,5 21,4 9,9 7,3 16 9 31 17 ESE 1019,7 49 60 0,0
05.04.2020 15:00:00 16,8 -0,8 20,0 20,9 9,2 7,3 16 9 30 16 SSE 1020,5 46 60 0,0
05.04.2020 14:00:00 16,3 -0,8 19,8 19,4 8,6 7,3 16 9 30 16 ESE 1021,2 36 60 0,0
05.04.2020 13:00:00 14,7 0,2 19,3 17,1 8,1 7,3 13 7 29 16 E 1022,1 37 60 0,0
05.04.2020 12:00:00 13,2 0,7 16,3 14,3 7,7 7,3 21 11 32 17 E 1022,7 47 60 0,0
05.04.2020 11:00:00 11,3 -0,2 14,1 11,6 7,6 7,3 19 10 31 17 E 1023,4 62 60 0,0
05.04.2020 10:00:00 10,0 0,3 11,8 8,8 7,6 7,3 18 10 32 17 E 1023,7 43 60 0,0
05.04.2020 09:00:00 8,0 -0,4 8,6 6,4 7,7 7,3 22 12 31 17 E 1023,8 37 60 0,0
05.04.2020 08:00:00 6,7 -0,6 5,7 5,0 7,9 7,3 16 9 24 13 ENE 1023,8 46 37 0,0
05.04.2020 07:00:00 6,4 -0,8 4,1 5,0 8,1 7,3 18 10 24 13 ENE 1023,6 43 0 0,0
05.04.2020 06:00:00 6,7 -0,8 4,2 5,4 8,4 7,3 16 9 23 13 ENE 1023,3 39 0 0,0
05.04.2020 05:00:00 7,3 -0,6 4,8 5,7 8,6 7,3 18 10 24 13 ENE 1023,1 43 0 0,0
05.04.2020 04:00:00 7,4 -0,4 4,8 6,1 8,8 7,3 15 8 23 12 ENE 1023,2 43 0 0,0
05.04.2020 03:00:00 7,7 -0,5 5,2 6,5 9,1 7,3 16 9 29 16 ENE 1023,4 38 0 0,0
05.04.2020 02:00:00 8,1 -0,7 5,8 7,0 9,4 7,3 16 9 28 15 ENE 1023,8 37 0 0,0
05.04.2020 01:00:00 8,5 -0,9 6,3 7,4 9,7 7,3 19 11 24 13 ENE 1023,7 41 0 0,0
05.04.2020 00:00:00 8,5 -0,7 6,2 8,0 9,9 7,3 17 9 22 12 ENE 1023,6 39 0 0,0
04.04.2020 23:00:00 8,7 -1,0 6,2 8,8 10,2 7,3 16 9 24 13 ENE 1023,7 44 0 0,0
04.04.2020 22:00:00 9,1 -1,4 6,4 9,9 10,4 7,3 14 8 24 13 ENE 1023,6 43 0 0,0
04.04.2020 21:00:00 10,1 -0,8 7,8 11,4 10,5 7,3 17 9 25 13 ENE 1023,3 44 2 0,0
04.04.2020 20:00:00 11,2 -0,6 8,9 13,4 10,3 7,3 14 8 23 12 ENE 1022,8 52 60 0,0
04.04.2020 19:00:00 12,5 -1,3 12,6 15,7 10,0 7,3 16 9 28 15 E 1022,1 61 60 0,0
04.04.2020 18:00:00 12,9 -1,1 14,8 17,6 9,6 7,3 15 8 24 13 E 1022,1 48 60 0,0
04.04.2020 17:00:00 12,6 -1,6 16,2 18,9 8,9 7,3 14 8 31 17 E 1022,3 71 60 0,0
04.04.2020 16:00:00 12,5 -0,5 17,1 19,3 8,2 7,3 13 7 23 12 E 1022,9 57 59 0,0
04.04.2020 15:00:00 11,8 -1,2 17,5 18,6 7,5 7,3 12 6 34 18 E 1023,2 62 60 0,0
04.04.2020 14:00:00 11,0 -1,6 16,1 17,3 6,8 7,3 14 7 24 13 ESE 1023,7 75 60 0,0
04.04.2020 13:00:00 10,0 -1,7 14,7 15,2 6,3 7,3 10 5 24 13 ESE 1024,3 44 60 0,0
04.04.2020 12:00:00 10,1 0,2 14,6 12,6 5,9 7,3 11 6 32 17 ENE 1024,5 44 60 0,0
04.04.2020 11:00:00 8,2 -0,6 11,7 9,4 5,7 7,2 10 6 16 9 ESE 1024,8 35 60 0,0
04.04.2020 10:00:00 6,6 -0,9 9,0 6,1 5,7 7,2 10 5 17 9 E 1024,7 53 60 0,0
04.04.2020 09:00:00 4,2 -1,9 5,9 3,3 5,8 7,2 14 8 19 11 NE 1024,6 40 60 0,0
04.04.2020 08:00:00 2,4 -2,6 1,7 1,7 6,0 7,2 16 9 21 11 NE 1024,6 39 31 0,0
04.04.2020 07:00:00 2,2 -2,6 -0,9 1,6 6,3 7,2 12 6 16 9 NE 1024,1 52 0 0,0
04.04.2020 06:00:00 2,7 -2,3 -2,1 1,9 6,5 7,2 11 6 13 7 NE 1023,7 44 0 0,0
04.04.2020 05:00:00 3,3 -2,1 -1,3 2,3 6,8 7,2 8 5 13 7 NE 1023,3 55 0 0,0
04.04.2020 04:00:00 2,4 -2,5 -2,6 2,7 7,1 7,2 6 3 10 5 ENE 1023,0 46 0 0,0
04.04.2020 03:00:00 4,4 -2,3 -2,0 3,2 7,4 7,2 4 2 7 4 NE 1022,5 47 0 0,0
04.04.2020 02:00:00 4,9 -1,8 -1,6 3,8 7,6 7,2 3 2 6 3 ENE 1022,4 49 0 0,0
04.04.2020 01:00:00 5,1 -2,0 -1,1 4,6 7,9 7,2 4 2 5 3 E 1022,3 51 0 0,0
04.04.2020 00:00:00 5,1 -1,9 -0,4 5,7 8,0 7,2 3 2 17 9 ESE 1021,8 50 0 0,0
03.04.2020 23:00:00 6,5 -2,2 3,9 6,8 8,2 7,2 12 7 19 10 N 1021,4 50 0 0,0
03.04.2020 22:00:00 7,3 -1,9 5,4 7,4 8,3 7,2 14 8 26 14 N 1020,8 58 0 0,0
03.04.2020 21:00:00 8,1 -0,8 5,7 8,6 8,3 7,2 7 4 19 10 WNW 1019,8 49 0 0,0
03.04.2020 20:00:00 8,9 0,3 8,1 9,3 8,3 7,2 11 6 24 13 WNW 1018,9 50 0 0,0
03.04.2020 19:00:00 9,2 0,1 8,8 10,2 8,2 7,2 16 9 24 13 W 1018,5 57 0 0,0
03.04.2020 18:00:00 9,4 0,2 9,5 10,5 8,1 7,2 12 6 27 15 W 1018,1 61 0 0,0
03.04.2020 17:00:00 9,1 0,0 9,5 10,7 8,0 7,2 18 10 29 16 WNW 1018,1 64 0 0,0
03.04.2020 16:00:00 9,0 0,5 8,9 11,1 7,7 7,2 16 9 35 19 WNW 1018,0 46 0 0,0
03.04.2020 15:00:00 9,5 -0,1 9,8 11,9 7,3 7,2 19 10 30 16 W 1017,5 46 0 0,0
03.04.2020 14:00:00 9,3 -0,2 10,1 13,4 6,8 7,2 16 9 32 17 W 1017,4 42 9 0,0
03.04.2020 13:00:00 9,6 3,2 13,0 13,8 6,4 7,2 14 8 23 13 WSW 1017,4 36 55 0,0
03.04.2020 12:00:00 6,9 2,2 10,6 9,8 6,2 7,2 13 7 23 12 WSW 1017,9 21 33 0,0
03.04.2020 11:00:00 5,3 1,4 7,1 7,3 6,1 7,2 16 9 23 12 W 1017,8 21 12 0,0

tt = Température de l'air
td = dewpoint
tt 5cm = Température de l'air 5cm
tt -5cm = Température de l'air -5cm
tt -20cm = Température de l'air -20cm
tt -100cm = Température de l'air -100cm
ff = Vitesse du vent
fx = gusts
dd = Direction du vent
ppp = reduced air pressure
vv = visibility
sd = Ensoleillement
rr = Quantités de précipitations

stations d'obs. à proximité